TimeEDT,TemperatureF,Dew PointF,Humidity,Sea Level PressureIn,VisibilityMPH,Wind Direction,Wind SpeedMPH,Gust SpeedMPH,PrecipitationIn,Events,Conditions,WindDirDegrees,DateUTC
12:53 AM,75.9,64.0,67,30.10,10.0,East,13.8,-,N/A,,Mostly Cloudy,90,2013-04-28 04:53:00
1:53 AM,75.0,63.0,66,30.09,10.0,ESE,15.0,-,N/A,,Partly Cloudy,110,2013-04-28 05:53:00
2:53 AM,75.0,62.1,64,30.07,10.0,East,15.0,-,N/A,,Partly Cloudy,90,2013-04-28 06:53:00
3:53 AM,75.0,63.0,66,30.06,10.0,East,11.5,-,N/A,,Partly Cloudy,90,2013-04-28 07:53:00
4:53 AM,75.0,63.0,66,30.05,10.0,East,11.5,-,N/A,,Partly Cloudy,90,2013-04-28 08:53:00
5:53 AM,75.0,63.0,66,30.05,10.0,ESE,15.0,-,N/A,,Mostly Cloudy,110,2013-04-28 09:53:00
6:53 AM,75.0,63.0,66,30.06,10.0,East,13.8,-,N/A,,Mostly Cloudy,90,2013-04-28 10:53:00
7:53 AM,75.9,63.0,64,30.07,10.0,ESE,18.4,-,N/A,,Mostly Cloudy,110,2013-04-28 11:53:00
8:53 AM,75.9,63.0,64,30.09,10.0,ESE,13.8,23.0,N/A,,Scattered Clouds,110,2013-04-28 12:53:00
9:53 AM,79.0,63.0,58,30.09,10.0,ESE,17.3,-,N/A,,Scattered Clouds,110,2013-04-28 13:53:00
10:53 AM,80.1,63.0,56,30.10,10.0,ESE,16.1,-,N/A,,Partly Cloudy,110,2013-04-28 14:53:00
11:53 AM,81.0,64.0,56,30.09,10.0,East,15.0,-,N/A,,Partly Cloudy,90,2013-04-28 15:53:00
12:53 PM,80.1,63.0,56,30.10,10.0,East,13.8,-,N/A,,Mostly Cloudy,100,2013-04-28 16:53:00
1:53 PM,81.0,62.1,52,30.09,10.0,East,15.0,-,N/A,,Partly Cloudy,90,2013-04-28 17:53:00
2:53 PM,81.0,64.0,56,30.06,10.0,ESE,17.3,-,N/A,,Partly Cloudy,110,2013-04-28 18:53:00
3:53 PM,82.0,64.0,54,30.04,10.0,East,16.1,-,N/A,,Scattered Clouds,100,2013-04-28 19:53:00
4:53 PM,80.1,64.9,60,30.01,10.0,East,15.0,24.2,N/A,,Scattered Clouds,100,2013-04-28 20:53:00
5:53 PM,80.1,64.0,58,30.00,10.0,East,16.1,-,N/A,,Partly Cloudy,100,2013-04-28 21:53:00
6:53 PM,78.1,62.1,58,30.00,10.0,ESE,11.5,-,N/A,,Scattered Clouds,110,2013-04-28 22:53:00
7:53 PM,75.9,62.1,62,30.01,10.0,East,10.4,-,N/A,,Scattered Clouds,100,2013-04-28 23:53:00
8:53 PM,75.9,62.1,62,30.00,10.0,ESE,10.4,-,N/A,,Scattered Clouds,110,2013-04-29 00:53:00
9:53 PM,75.9,60.1,58,30.02,10.0,ESE,9.2,-,N/A,,Partly Cloudy,120,2013-04-29 01:53:00
10:53 PM,75.9,62.1,62,30.03,10.0,SE,13.8,-,N/A,,Partly Cloudy,130,2013-04-29 02:53:00
11:53 PM,75.9,62.1,62,30.02,10.0,SE,13.8,-,N/A,,Partly Cloudy,130,2013-04-29 03:53:00